Time,TemperatureF,DewpointF,PressureIn,WindDirection,WindDirectionDegrees,WindSpeedMPH,WindSpeedGustMPH,Humidity,HourlyPrecipIn,Conditions,Clouds,dailyrainin,SoftwareType,DateUTC
2013-03-22 00:02:00,41.0,7.0,29.75,West,270,5.0,5.0,24,0.00,,,0.00,,2013-03-22 07:02:00,
2013-03-22 00:12:00,41.0,7.0,29.75,West,270,5.0,5.0,24,0.00,,,0.00,,2013-03-22 07:12:00,
2013-03-22 00:22:00,42.0,7.0,29.75,West,263,6.0,7.0,23,0.00,,,0.00,,2013-03-22 07:22:00,
2013-03-22 00:32:00,41.0,6.0,29.75,WNW,284,6.0,7.0,23,0.00,,,0.00,,2013-03-22 07:32:00,
2013-03-22 00:42:00,41.0,6.0,29.75,WNW,284,6.0,7.0,23,0.00,,,0.00,,2013-03-22 07:42:00,
2013-03-22 00:52:00,42.0,7.0,29.74,WNW,288,5.0,7.0,23,0.00,,,0.00,,2013-03-22 07:52:00,
2013-03-22 01:03:00,41.0,6.0,29.74,West,262,3.0,6.0,23,0.00,,,0.00,,2013-03-22 08:03:00,
2013-03-22 01:12:00,41.0,6.0,29.74,West,262,3.0,6.0,23,0.00,,,0.00,,2013-03-22 08:12:00,
2013-03-22 01:22:00,41.0,7.0,29.75,West,263,5.0,6.0,24,0.00,,,0.00,,2013-03-22 08:22:00,
2013-03-22 01:32:00,41.0,7.0,29.75,West,270,4.0,6.0,24,0.00,,,0.00,,2013-03-22 08:32:00,
2013-03-22 01:42:00,41.0,7.0,29.75,West,270,4.0,6.0,24,0.00,,,0.00,,2013-03-22 08:42:00,
2013-03-22 01:52:00,39.0,5.0,29.75,West,266,3.0,3.0,24,0.00,,,0.00,,2013-03-22 08:52:00,
2013-03-22 02:02:00,39.0,6.0,29.75,West,278,3.0,5.0,25,0.00,,,0.00,,2013-03-22 09:02:00,
2013-03-22 02:12:00,39.0,6.0,29.75,West,278,3.0,5.0,25,0.00,,,0.00,,2013-03-22 09:12:00,
2013-03-22 02:22:00,38.0,4.0,29.74,NW,315,2.0,2.0,24,0.00,,,0.00,,2013-03-22 09:22:00,
2013-03-22 02:32:00,38.0,6.0,29.74,NW,315,1.0,3.0,26,0.00,,,0.00,,2013-03-22 09:32:00,
2013-03-22 02:42:00,38.0,6.0,29.74,NW,315,1.0,3.0,26,0.00,,,0.00,,2013-03-22 09:42:00,
2013-03-22 02:53:00,38.0,6.0,29.74,NW,315,1.0,2.0,26,0.00,,,0.00,,2013-03-22 09:53:00,
2013-03-22 03:03:00,37.0,5.0,29.73,WNW,297,1.0,2.0,26,0.00,,,0.00,,2013-03-22 10:03:00,
2013-03-22 03:12:00,37.0,5.0,29.73,WNW,297,1.0,2.0,26,0.00,,,0.00,,2013-03-22 10:12:00,
2013-03-22 03:22:00,37.0,6.0,29.73,West,263,1.0,2.0,27,0.00,,,0.00,,2013-03-22 10:22:00,
2013-03-22 03:32:00,37.0,6.0,29.73,NW,308,1.0,2.0,27,0.00,,,0.00,,2013-03-22 10:32:00,
2013-03-22 03:42:00,37.0,6.0,29.73,NW,308,1.0,2.0,27,0.00,,,0.00,,2013-03-22 10:42:00,
2013-03-22 03:52:00,36.0,5.0,29.73,West,270,1.0,1.0,27,0.00,,,0.00,,2013-03-22 10:52:00,
2013-03-22 04:03:00,36.0,5.0,29.73,West,270,1.0,1.0,27,0.00,,,0.00,,2013-03-22 11:03:00,
2013-03-22 04:12:00,36.0,5.0,29.73,West,270,1.0,1.0,27,0.00,,,0.00,,2013-03-22 11:12:00,
2013-03-22 04:22:00,36.0,6.0,29.73,WNW,292,2.0,2.0,28,0.00,,,0.00,,2013-03-22 11:22:00,
2013-03-22 04:32:00,36.0,6.0,29.73,West,265,1.0,2.0,28,0.00,,,0.00,,2013-03-22 11:32:00,
2013-03-22 04:42:00,36.0,6.0,29.73,West,265,1.0,2.0,28,0.00,,,0.00,,2013-03-22 11:42:00,
2013-03-22 04:52:00,36.0,6.0,29.73,West,267,2.0,3.0,28,0.00,,,0.00,,2013-03-22 11:52:00,
2013-03-22 05:02:00,35.0,6.0,29.74,West,276,2.0,2.0,29,0.00,,,0.00,,2013-03-22 12:02:00,
2013-03-22 05:12:00,35.0,6.0,29.74,West,276,2.0,2.0,29,0.00,,,0.00,,2013-03-22 12:12:00,
2013-03-22 05:22:00,35.0,6.0,29.75,SSW,202,1.0,2.0,29,0.00,,,0.00,,2013-03-22 12:22:00,
2013-03-22 05:32:00,35.0,6.0,29.76,SW,225,0.0,1.0,29,0.00,,,0.00,,2013-03-22 12:32:00,
2013-03-22 05:42:00,35.0,6.0,29.76,SW,225,0.0,1.0,29,0.00,,,0.00,,2013-03-22 12:42:00,
2013-03-22 05:52:00,34.0,5.0,29.76,WSW,250,1.0,1.0,29,0.00,,,0.00,,2013-03-22 12:52:00,
2013-03-22 06:02:00,34.0,5.0,29.76,WSW,250,1.0,1.0,29,0.00,,,0.00,,2013-03-22 13:02:00,
2013-03-22 06:12:00,34.0,5.0,29.76,WSW,250,1.0,1.0,29,0.00,,,0.00,,2013-03-22 13:12:00,
2013-03-22 06:22:00,36.0,8.0,29.76,WNW,285,2.0,5.0,31,0.00,,,0.00,,2013-03-22 13:22:00,
2013-03-22 06:32:00,36.0,8.0,29.76,WSW,248,1.0,3.0,30,0.00,,,0.00,,2013-03-22 13:32:00,
2013-03-22 06:42:00,36.0,8.0,29.76,WSW,248,1.0,3.0,30,0.00,,,0.00,,2013-03-22 13:42:00,
2013-03-22 06:52:00,36.0,8.0,29.76,WSW,248,1.0,3.0,30,0.00,,,0.00,,2013-03-22 13:52:00,
2013-03-22 07:02:00,38.0,9.0,29.77,SE,135,1.0,2.0,29,0.00,,,0.00,,2013-03-22 14:02:00,
2013-03-22 07:12:00,38.0,9.0,29.77,SE,135,1.0,2.0,29,0.00,,,0.00,,2013-03-22 14:12:00,
2013-03-22 07:22:00,41.0,10.0,29.78,North,349,1.0,3.0,28,0.00,,,0.00,,2013-03-22 14:22:00,
2013-03-22 07:32:00,42.0,11.0,29.78,SE,141,2.0,2.0,28,0.00,,,0.00,,2013-03-22 14:32:00,
2013-03-22 07:42:00,42.0,11.0,29.78,SE,141,2.0,2.0,28,0.00,,,0.00,,2013-03-22 14:42:00,
2013-03-22 07:52:00,44.0,12.0,29.78,West,281,1.0,3.0,27,0.00,,,0.00,,2013-03-22 14:52:00,
2013-03-22 08:02:00,44.0,12.0,29.78,West,281,1.0,3.0,27,0.00,,,0.00,,2013-03-22 15:02:00,
2013-03-22 08:12:00,44.0,12.0,29.78,West,281,1.0,3.0,27,0.00,,,0.00,,2013-03-22 15:12:00,
2013-03-22 08:22:00,48.0,12.0,29.78,ENE,64,1.0,2.0,23,0.00,,,0.00,,2013-03-22 15:22:00,
2013-03-22 08:32:00,49.0,11.0,29.78,North,357,4.0,7.0,21,0.00,,,0.00,,2013-03-22 15:32:00,
2013-03-22 08:43:00,49.0,11.0,29.78,North,357,4.0,7.0,21,0.00,,,0.00,,2013-03-22 15:43:00,
2013-03-22 08:53:00,50.0,9.0,29.78,North,2,4.0,6.0,19,0.00,,,0.00,,2013-03-22 15:53:00,
2013-03-22 09:02:00,51.0,9.0,29.78,NNW,332,5.0,6.0,18,0.00,,,0.00,,2013-03-22 16:02:00,
2013-03-22 09:13:00,51.0,9.0,29.78,NNW,332,5.0,6.0,18,0.00,,,0.00,,2013-03-22 16:13:00,
2013-03-22 09:22:00,53.0,9.0,29.78,NNE,14,3.0,6.0,17,0.00,,,0.00,,2013-03-22 16:22:00,
2013-03-22 09:32:00,54.0,10.0,29.78,East,82,0.0,6.0,17,0.00,,,0.00,,2013-03-22 16:32:00,
2013-03-22 09:42:00,54.0,10.0,29.78,East,82,0.0,6.0,17,0.00,,,0.00,,2013-03-22 16:42:00,
2013-03-22 09:52:00,56.0,12.0,29.77,ENE,73,1.0,5.0,17,0.00,,,0.00,,2013-03-22 16:52:00,
2013-03-22 10:03:00,57.0,13.0,29.77,SSE,150,3.0,7.0,17,0.00,,,0.00,,2013-03-22 17:03:00,
2013-03-22 10:12:00,58.0,13.0,29.76,ESE,107,2.0,8.0,17,0.00,,,0.00,,2013-03-22 17:12:00,
2013-03-22 10:23:00,58.0,13.0,29.76,ESE,107,2.0,8.0,17,0.00,,,0.00,,2013-03-22 17:23:00,
2013-03-22 10:32:00,59.0,13.0,29.76,ESE,105,5.0,6.0,16,0.00,,,0.00,,2013-03-22 17:32:00,
2013-03-22 10:42:00,59.0,13.0,29.76,ESE,105,5.0,6.0,16,0.00,,,0.00,,2013-03-22 17:42:00,
2013-03-22 10:52:00,60.0,14.0,29.75,WSW,239,3.0,6.0,16,0.00,,,0.00,,2013-03-22 17:52:00,
2013-03-22 11:02:00,61.0,14.0,29.75,SSE,149,4.0,8.0,16,0.00,,,0.00,,2013-03-22 18:02:00,
2013-03-22 11:12:00,61.0,14.0,29.75,SSE,149,4.0,8.0,16,0.00,,,0.00,,2013-03-22 18:12:00,
2013-03-22 11:22:00,62.0,14.0,29.75,ESE,112,5.0,9.0,15,0.00,,,0.00,,2013-03-22 18:22:00,
2013-03-22 11:33:00,62.0,14.0,29.74,South,186,3.0,9.0,15,0.00,,,0.00,,2013-03-22 18:33:00,
2013-03-22 11:42:00,62.0,14.0,29.74,South,186,3.0,9.0,15,0.00,,,0.00,,2013-03-22 18:42:00,
2013-03-22 11:52:00,62.0,14.0,29.73,SE,138,3.0,8.0,15,0.00,,,0.00,,2013-03-22 18:52:00,
2013-03-22 12:02:00,63.0,15.0,29.72,ESE,107,3.0,7.0,15,0.00,,,0.00,,2013-03-22 19:02:00,
2013-03-22 12:12:00,63.0,15.0,29.72,ESE,107,3.0,7.0,15,0.00,,,0.00,,2013-03-22 19:12:00,
2013-03-22 12:22:00,65.0,13.0,29.72,SSW,213,7.0,15.0,13,0.00,,,0.00,,2013-03-22 19:22:00,
2013-03-22 12:32:00,66.0,17.0,29.71,SSE,163,3.0,8.0,15,0.00,,,0.00,,2013-03-22 19:32:00,
2013-03-22 12:42:00,66.0,17.0,29.71,SSE,163,3.0,8.0,15,0.00,,,0.00,,2013-03-22 19:42:00,
2013-03-22 12:52:00,65.0,13.0,29.70,NW,318,2.0,6.0,13,0.00,,,0.00,,2013-03-22 19:52:00,
2013-03-22 13:02:00,65.0,16.0,29.69,SE,140,6.0,8.0,15,0.00,,,0.00,,2013-03-22 20:02:00,
2013-03-22 13:12:00,65.0,16.0,29.69,SE,140,6.0,8.0,15,0.00,,,0.00,,2013-03-22 20:12:00,
2013-03-22 13:22:00,63.0,15.0,29.68,NW,304,3.0,7.0,15,0.00,,,0.00,,2013-03-22 20:22:00,
2013-03-22 13:32:00,63.0,15.0,29.68,WNW,299,3.0,5.0,15,0.00,,,0.00,,2013-03-22 20:32:00,
2013-03-22 13:42:00,63.0,15.0,29.68,WNW,299,3.0,5.0,15,0.00,,,0.00,,2013-03-22 20:42:00,
2013-03-22 13:52:00,64.0,15.0,29.67,WNW,292,3.0,8.0,15,0.00,,,0.00,,2013-03-22 20:52:00,
2013-03-22 14:03:00,63.0,15.0,29.67,West,271,3.0,10.0,15,0.00,,,0.00,,2013-03-22 21:03:00,
2013-03-22 14:12:00,63.0,15.0,29.66,NNW,337,1.0,6.0,15,0.00,,,0.00,,2013-03-22 21:12:00,
2013-03-22 14:22:00,63.0,15.0,29.66,NNW,337,1.0,6.0,15,0.00,,,0.00,,2013-03-22 21:22:00,
2013-03-22 14:32:00,63.0,15.0,29.66,NNW,337,1.0,6.0,15,0.00,,,0.00,,2013-03-22 21:32:00,
2013-03-22 14:43:00,63.0,15.0,29.66,NNW,337,1.0,6.0,15,0.00,,,0.00,,2013-03-22 21:43:00,
2013-03-22 14:53:00,63.0,15.0,29.65,NW,312,3.0,7.0,15,0.00,,,0.00,,2013-03-22 21:53:00,
2013-03-22 15:03:00,66.0,19.0,29.65,NNW,328,6.0,8.0,16,0.00,,,0.00,,2013-03-22 22:03:00,
2013-03-22 15:12:00,66.0,19.0,29.65,NNW,328,6.0,8.0,16,0.00,,,0.00,,2013-03-22 22:12:00,
2013-03-22 15:23:00,64.0,18.0,29.64,SW,236,3.0,8.0,17,0.00,,,0.00,,2013-03-22 22:23:00,
2013-03-22 15:32:00,65.0,19.0,29.63,SW,225,2.0,5.0,17,0.00,,,0.00,,2013-03-22 22:32:00,
2013-03-22 15:42:00,65.0,19.0,29.63,SW,225,2.0,5.0,17,0.00,,,0.00,,2013-03-22 22:42:00,
2013-03-22 15:53:00,64.0,17.0,29.63,West,268,9.0,13.0,16,0.00,,,0.00,,2013-03-22 22:53:00,
2013-03-22 16:02:00,64.0,17.0,29.63,WNW,288,9.0,12.0,16,0.00,,,0.00,,2013-03-22 23:02:00,
2013-03-22 16:12:00,64.0,17.0,29.63,WNW,288,9.0,12.0,16,0.00,,,0.00,,2013-03-22 23:12:00,
2013-03-22 16:22:00,63.0,16.0,29.62,WNW,295,11.0,15.0,16,0.00,,,0.00,,2013-03-22 23:22:00,
2013-03-22 16:32:00,64.0,17.0,29.62,SW,223,13.0,22.0,16,0.00,,,0.00,,2013-03-22 23:32:00,
2013-03-22 16:42:00,64.0,17.0,29.62,SW,223,13.0,22.0,16,0.00,,,0.00,,2013-03-22 23:42:00,
2013-03-22 16:52:00,65.0,13.0,29.62,West,267,13.0,17.0,13,0.00,,,0.00,,2013-03-22 23:52:00,
2013-03-22 17:02:00,65.0,11.0,29.62,WNW,290,13.0,16.0,12,0.00,,,0.00,,2013-03-23 00:02:00,
2013-03-22 17:12:00,65.0,11.0,29.62,WNW,290,13.0,16.0,12,0.00,,,0.00,,2013-03-23 00:12:00,
2013-03-22 17:23:00,64.0,12.0,29.62,WNW,297,13.0,15.0,13,0.00,,,0.00,,2013-03-23 00:23:00,
2013-03-22 17:32:00,63.0,11.0,29.62,West,276,12.0,16.0,13,0.00,,,0.00,,2013-03-23 00:32:00,
2013-03-22 17:42:00,63.0,11.0,29.62,West,276,12.0,16.0,13,0.00,,,0.00,,2013-03-23 00:42:00,
2013-03-22 17:52:00,62.0,14.0,29.62,West,276,9.0,14.0,15,0.00,,,0.00,,2013-03-23 00:52:00,
2013-03-22 18:03:00,62.0,14.0,29.62,West,276,9.0,14.0,15,0.00,,,0.00,,2013-03-23 01:03:00,
2013-03-22 18:12:00,62.0,14.0,29.62,West,276,9.0,14.0,15,0.00,,,0.00,,2013-03-23 01:12:00,
2013-03-22 18:22:00,61.0,16.0,29.63,WNW,292,15.0,18.0,17,0.00,,,0.00,,2013-03-23 01:22:00,
2013-03-22 18:32:00,60.0,15.0,29.64,West,269,14.0,18.0,17,0.00,,,0.00,,2013-03-23 01:32:00,
2013-03-22 18:43:00,60.0,15.0,29.64,West,269,14.0,18.0,17,0.00,,,0.00,,2013-03-23 01:43:00,
2013-03-22 18:52:00,58.0,15.0,29.64,WSW,256,13.0,17.0,18,0.00,,,0.00,,2013-03-23 01:52:00,
2013-03-22 19:02:00,58.0,15.0,29.64,WSW,256,13.0,17.0,18,0.00,,,0.00,,2013-03-23 02:02:00,
2013-03-22 19:12:00,58.0,15.0,29.64,WSW,256,13.0,17.0,18,0.00,,,0.00,,2013-03-23 02:12:00,
2013-03-22 19:22:00,57.0,17.0,29.65,WSW,237,13.0,15.0,21,0.00,,,0.00,,2013-03-23 02:22:00,
2013-03-22 19:32:00,56.0,24.0,29.66,WSW,237,16.0,20.0,29,0.00,,,0.00,,2013-03-23 02:32:00,
2013-03-22 19:42:00,56.0,24.0,29.66,WSW,237,16.0,20.0,29,0.00,,,0.00,,2013-03-23 02:42:00,
2013-03-22 19:52:00,54.0,26.0,29.67,SSW,209,14.0,17.0,34,0.00,,,0.00,,2013-03-23 02:52:00,
2013-03-22 20:02:00,54.0,28.0,29.67,SW,230,14.0,21.0,36,0.00,,,0.00,,2013-03-23 03:02:00,
2013-03-22 20:12:00,54.0,28.0,29.67,SW,230,14.0,21.0,36,0.00,,,0.00,,2013-03-23 03:12:00,
2013-03-22 20:22:00,53.0,28.0,29.67,WSW,239,12.0,17.0,38,0.00,,,0.00,,2013-03-23 03:22:00,
2013-03-22 20:33:00,52.0,27.0,29.67,SW,225,11.0,17.0,38,0.00,,,0.00,,2013-03-23 03:33:00,
2013-03-22 20:43:00,52.0,27.0,29.67,SW,225,11.0,17.0,38,0.00,,,0.00,,2013-03-23 03:43:00,
2013-03-22 20:53:00,51.0,26.0,29.68,WSW,242,12.0,15.0,38,0.00,,,0.00,,2013-03-23 03:53:00,
2013-03-22 21:02:00,51.0,27.0,29.68,SW,223,11.0,14.0,39,0.00,,,0.00,,2013-03-23 04:02:00,
2013-03-22 21:12:00,51.0,27.0,29.68,SW,223,11.0,14.0,39,0.00,,,0.00,,2013-03-23 04:12:00,
2013-03-22 21:23:00,50.0,27.0,29.68,WSW,243,12.0,15.0,40,0.00,,,0.00,,2013-03-23 04:23:00,
2013-03-22 21:32:00,51.0,28.0,29.68,SW,236,13.0,17.0,40,0.00,,,0.00,,2013-03-23 04:32:00,
2013-03-22 21:43:00,51.0,28.0,29.68,SW,236,13.0,17.0,40,0.00,,,0.00,,2013-03-23 04:43:00,
2013-03-22 21:53:00,50.0,27.0,29.68,WSW,243,12.0,16.0,40,0.00,,,0.00,,2013-03-23 04:53:00,
2013-03-22 22:02:00,50.0,27.0,29.68,WSW,243,12.0,16.0,40,0.00,,,0.00,,2013-03-23 05:02:00,
2013-03-22 22:12:00,50.0,27.0,29.68,WSW,243,12.0,16.0,40,0.00,,,0.00,,2013-03-23 05:12:00,
2013-03-22 22:22:00,49.0,25.0,29.68,WSW,253,10.0,16.0,39,0.00,,,0.00,,2013-03-23 05:22:00,
2013-03-22 22:32:00,49.0,25.0,29.69,WSW,247,10.0,14.0,39,0.00,,,0.00,,2013-03-23 05:32:00,
2013-03-22 22:42:00,49.0,25.0,29.69,WSW,247,10.0,14.0,39,0.00,,,0.00,,2013-03-23 05:42:00,
2013-03-22 22:52:00,49.0,25.0,29.69,WSW,248,10.0,16.0,38,0.00,,,0.00,,2013-03-23 05:52:00,
2013-03-22 23:02:00,49.0,25.0,29.69,WSW,243,10.0,17.0,38,0.00,,,0.00,,2013-03-23 06:02:00,
2013-03-22 23:12:00,49.0,25.0,29.69,WSW,243,10.0,17.0,38,0.00,,,0.00,,2013-03-23 06:12:00,
2013-03-22 23:22:00,49.0,25.0,29.69,SW,225,9.0,14.0,39,0.00,,,0.00,,2013-03-23 06:22:00,
2013-03-22 23:32:00,49.0,25.0,29.69,SW,225,9.0,14.0,39,0.00,,,0.00,,2013-03-23 06:32:00,
2013-03-22 23:42:00,49.0,25.0,29.69,SW,225,9.0,14.0,39,0.00,,,0.00,,2013-03-23 06:42:00,
2013-03-22 23:52:00,49.0,25.0,29.68,WSW,248,9.0,14.0,38,0.00,,,0.00,,2013-03-23 06:52:00,